Find Starlink 32457

NORAD ID: 61717 Int'l Des: 2024-196 Owner: SPXS Country: US Constellation: starlink operational
LEOCIRCULAR

Current View

Loading 3D Globe...

About Starlink 32457

Starlink 32457 (NORAD 61717) is a starlink constellation satellite (v2 mini) launched Oct 30, 2024 by SPXS of US. It operates in LEO, CIRCULAR orbit with a mass of 730.00 kg.

About Starlink 32457

Description loading...

Upcoming Passes

Passes for default location (London). Set your location on the main map for personalized predictions.

Altitude History

Loading altitude history...

Two-Line Element Set

1 61717U 24196L 26177.66742036 -.00000012 00000-0 11733-4 0 9994
2 61717 53.1600 315.0020 0001358 95.8827 264.2328 15.30187976 93844
Epoch: Jun 26, 2026 • Age: 12 hours

Current Status

Altitude 477.1 km
Velocity 7.63 km/s
Sub-Earth Point 34.97°N, 132.46°E
Launch Date Oct 30, 2024
Age 1.6 years
Type internet

Technical Details

Classification Payload
Mass 730.00 kg
Dry Mass 700.00 kg
Total Mass 730.00 kg
Length 0.30 m
Diameter 4.10 m
Span 29.00 m
Shape Box + pan
Manufacturer SPXS
Bus Type Starlink V2M
Phase Status In Orbit
Owner/State SPXS/US

Most Searched